Helicity
102 85 68 72 82 83 91 93 87 94 123 128 107 116 126 118 99 99 102 100 107 116
100 83 70 73 82 87 88 88 75 79 92 116 119 125 133 135 122 117 122 116 112 122
86 77 80 85 87 89 79 73 69 68 75 91 110 132 147 147 130 120 124 127 116 118
86 98 112 113 109 101 84 68 61 63 75 90 106 121 139 135 126 120 116 122 121 120
105 121 126 115 97 76 65 59 57 65 78 87 93 100 107 113 122 126 124 129 133 132
136 132 105 85 73 66 67 70 76 83 86 89 86 86 85 92 102 111 120 130 145 146
106 90 77 69 66 70 74 75 84 90 83 77 77 80 83 86 89 94 108 127 149 165
92 78 72 71 78 84 85 90 89 81 74 76 83 85 87 95 95 93 93 108 132 155
73 75 79 86 87 86 89 88 85 87 88 81 81 70 86 99 91 87 89 89 102 129
85 84 79 83 89 91 87 96 101 89 88 85 82 81 86 85 89 92 93 97 105 116
76 82 91 96 94 95 100 94 90 83 78 81 81 74 84 84 86 88 84 91 98 111
99 94 96 90 82 79 83 79 80 77 78 79 83 75 77 79 93 86 76 73 77 87
85 81 78 76 77 83 88 87 92 88 83 69 80 66 61 94 101 102 91 79 69 64
76 73 74 84 102 101 101 101 103 96 90 74 66 74 82 88 99 108 104 98 87 101
Wind_Speed
43 47 51 56 60 62 61 57 56 55 46 43 43 42 44 48 49 49 51 53 53 54
46 51 57 57 56 60 58 59 57 54 51 48 45 44 46 48 49 49 49 50 51 52
52 54 55 57 61 60 61 60 59 57 54 50 46 45 45 47 49 51 51 51 52 52
54 56 57 59 60 61 61 60 60 57 56 53 51 48 47 49 50 51 53 52 53 53
54 54 58 59 60 60 61 61 61 59 57 56 55 53 52 53 52 53 55 55 54 55
57 58 59 59 60 61 62 63 63 61 60 58 57 57 56 56 56 56 57 56 56 57
55 56 56 57 59 61 62 64 64 63 63 62 61 60 59 60 60 60 59 57 56 55
54 55 57 59 62 63 64 63 63 63 63 63 62 62 61 60 62 64 65 62 60 57
55 58 60 61 62 63 63 63 63 65 65 64 62 62 60 58 61 63 64 66 64 59
58 59 60 60 61 62 63 63 64 65 64 65 64 62 59 59 60 61 62 63 63 61
58 59 61 63 64 65 64 66 66 66 65 65 63 62 60 61 62 63 63 62 60 59
59 62 63 65 66 66 67 68 67 67 67 68 66 62 62 61 63 66 66 63 59 56
62 63 65 66 66 65 66 68 68 69 67 67 66 63 61 59 63 67 67 64 60 55
62 65 65 67 66 68 69 70 70 72 70 69 65 64 59 60 62 64 65 64 63 57
Wind_Direction
323 326 327 327 327 328 329 331 331 329 329 328 329 329 328 327 328 329 327 327 327 326
322 323 323 326 330 329 331 330 330 330 328 326 326 325 324 324 325 327 327 326 326 325
320 324 327 328 328 329 329 330 330 329 328 326 325 325 323 323 324 323 323 324 323 322
322 324 327 327 328 328 329 329 329 329 328 326 324 323 322 321 321 321 321 321 320 319
324 326 326 326 328 329 329 330 329 328 328 327 325 323 321 320 320 319 319 319 318 318
323 324 325 326 327 328 328 328 328 328 327 326 325 323 321 320 320 319 318 318 317 317
324 325 326 326 327 327 327 326 326 326 325 325 325 324 323 322 321 320 319 319 317 316
324 324 325 325 325 325 325 326 326 325 325 325 325 324 323 323 322 321 321 320 318 317
324 324 324 324 324 324 324 325 325 325 325 325 326 326 326 326 325 324 323 322 321 320
323 322 322 323 323 323 324 324 324 324 325 325 326 327 327 327 327 326 325 324 322 321
322 321 322 322 322 322 323 323 324 324 325 325 326 326 326 326 326 325 325 324 323 321
323 322 322 321 321 322 322 322 323 324 324 323 324 325 324 324 325 324 324 325 326 325
324 323 321 321 321 323 323 322 323 323 324 323 322 323 323 324 323 322 323 325 326 327
324 323 322 322 322 322 322 322 322 322 322 322 321 322 322 322 322 321 321 322 324 327